UAL2645 KFAT-KLAX

Flight info

Callsign UAL2645
Flight time N/A
Altitude 23000
Route FRAME PONDD TAFTO MUPTT IRNMN2
Aircraft B738/M-VGDW/C

Departure

Time 2026-05-04 01:31
Airport Fresno Yosemite International Airport (KFAT)

Arrival

Time N/A
Airport Los Angeles International Airport (KLAX)
Time Latitude Longitude Altitude Speed Heading
2026-05-04 01:28 36.77130 -119.71766 338 ft 0 kts 303°
2026-05-04 01:29 36.77124 -119.71754 338 ft 2 kts 303°
2026-05-04 01:29 36.77115 -119.71737 335 ft 2 kts 307°
2026-05-04 01:30 36.77103 -119.71723 334 ft 2 kts
2026-05-04 01:30 36.77093 -119.71728 332 ft 1 kts 41°
2026-05-04 01:30 36.77123 -119.71695 337 ft 22 kts 40°
2026-05-04 01:30 36.77307 -119.71574 334 ft 34 kts
2026-05-04 01:31 36.77463 -119.71772 333 ft 70 kts 304°
2026-05-04 01:31 36.77938 -119.72598 340 ft 160 kts 303°
2026-05-04 01:31 36.78622 -119.73888 1021 ft 194 kts 302°
2026-05-04 01:31 36.78961 -119.75623 1570 ft 230 kts 265°
2026-05-04 01:32 36.78289 -119.77424 1990 ft 256 kts 228°
2026-05-04 01:32 36.76725 -119.78554 2798 ft 268 kts 197°
2026-05-04 01:32 36.74853 -119.78644 3841 ft 272 kts 167°
2026-05-04 01:32 36.73176 -119.77690 5162 ft 264 kts 146°
2026-05-04 01:33 36.71657 -119.76407 6267 ft 265 kts 144°
2026-05-04 01:33 36.70148 -119.75084 7328 ft 265 kts 145°
2026-05-04 01:33 36.68625 -119.73746 8234 ft 272 kts 146°
2026-05-04 01:33 36.67069 -119.72388 9213 ft 274 kts 146°
2026-05-04 01:34 36.65498 -119.71026 9957 ft 287 kts 146°
2026-05-04 01:34 36.63774 -119.69539 10215 ft 316 kts 146°
2026-05-04 01:34 36.61889 -119.67920 10423 ft 342 kts 147°
2026-05-04 01:34 36.60010 -119.66576 10569 ft 364 kts 155°
2026-05-04 01:35 36.57625 -119.65296 10889 ft 381 kts 158°
2026-05-04 01:35 36.55143 -119.64050 11525 ft 387 kts 159°
2026-05-04 01:35 36.52630 -119.62800 12280 ft 390 kts 159°
2026-05-04 01:35 36.50108 -119.61536 13047 ft 392 kts 159°
2026-05-04 01:36 36.47572 -119.60251 13739 ft 396 kts 159°
2026-05-04 01:36 36.45014 -119.58943 14321 ft 401 kts 159°
2026-05-04 01:36 36.42422 -119.57610 14870 ft 406 kts 158°
2026-05-04 01:36 36.39837 -119.56276 15438 ft 410 kts 158°
2026-05-04 01:37 36.37190 -119.54908 16018 ft 414 kts 158°
2026-05-04 01:37 36.34517 -119.53527 16573 ft 418 kts 158°
2026-05-04 01:37 36.31818 -119.52133 17129 ft 422 kts 159°
2026-05-04 01:37 36.29093 -119.50727 17674 ft 426 kts 159°
2026-05-04 01:38 36.26343 -119.49309 18231 ft 429 kts 159°
2026-05-04 01:38 36.23573 -119.47883 18658 ft 434 kts 159°
2026-05-04 01:38 36.20773 -119.46442 19109 ft 438 kts 159°
2026-05-04 01:38 36.17952 -119.44991 19573 ft 441 kts 159°
2026-05-04 01:39 36.15447 -119.43704 19979 ft 444 kts 160°
2026-05-04 01:39 36.12589 -119.42237 20454 ft 446 kts 160°
2026-05-04 01:39 36.09750 -119.40780 20901 ft 449 kts 160°
2026-05-04 01:39 36.07157 -119.39581 21255 ft 450 kts 167°
2026-05-04 01:40 36.04102 -119.38814 21661 ft 448 kts 177°
2026-05-04 01:40 36.00991 -119.38620 22113 ft 448 kts 181°
2026-05-04 01:40 35.97866 -119.38482 22551 ft 450 kts 181°
2026-05-04 01:40 35.94737 -119.38335 22908 ft 452 kts 181°
2026-05-04 01:41 35.91578 -119.38185 22907 ft 455 kts 182°
2026-05-04 01:41 35.88468 -119.38036 22913 ft 452 kts 182°
2026-05-04 01:41 35.85712 -119.37904 22912 ft 451 kts 182°
2026-05-04 01:41 35.82576 -119.37755 22913 ft 451 kts 182°
2026-05-04 01:42 35.79446 -119.37609 22916 ft 451 kts 182°
2026-05-04 01:42 35.76310 -119.37463 22914 ft 451 kts 182°
2026-05-04 01:42 35.73172 -119.37317 22916 ft 451 kts 182°
2026-05-04 01:42 35.70035 -119.37171 22913 ft 451 kts 183°
2026-05-04 01:43 35.66901 -119.37025 22915 ft 451 kts 183°
2026-05-04 01:43 35.63920 -119.36887 22914 ft 450 kts 183°
2026-05-04 01:43 35.61016 -119.36751 22908 ft 449 kts 183°
2026-05-04 01:43 35.57941 -119.36608 22906 ft 448 kts 183°
2026-05-04 01:44 35.54833 -119.36463 22911 ft 447 kts 184°
2026-05-04 01:44 35.51729 -119.36320 22904 ft 446 kts 184°
2026-05-04 01:44 35.48631 -119.36177 22895 ft 446 kts 184°
2026-05-04 01:44 35.45528 -119.36034 22894 ft 445 kts 184°
2026-05-04 01:45 35.42437 -119.35891 22899 ft 445 kts 184°
2026-05-04 01:45 35.39938 -119.35776 22895 ft 445 kts 185°
2026-05-04 01:45 35.36754 -119.35629 22897 ft 445 kts 185°
2026-05-04 01:46 35.33662 -119.35487 22901 ft 445 kts 185°
2026-05-04 01:46 35.31823 -119.35402 22899 ft 445 kts 185°
2026-05-04 01:46 35.28878 -119.35266 22898 ft 444 kts 185°
2026-05-04 01:46 35.25790 -119.35125 22898 ft 445 kts 185°
2026-05-04 01:47 35.22696 -119.34983 22902 ft 446 kts 185°
2026-05-04 01:47 35.19590 -119.34841 22894 ft 446 kts 185°
2026-05-04 01:47 35.16494 -119.34699 22902 ft 446 kts 185°
2026-05-04 01:47 35.13405 -119.34555 22898 ft 442 kts 185°
2026-05-04 01:48 35.10322 -119.34413 22904 ft 444 kts 185°
2026-05-04 01:48 35.07226 -119.34273 22912 ft 446 kts 185°
2026-05-04 01:48 35.04125 -119.34132 22902 ft 447 kts 186°
2026-05-04 01:48 35.01069 -119.33991 22902 ft 444 kts 186°
2026-05-04 01:49 34.97980 -119.33850 22919 ft 445 kts 186°
2026-05-04 01:49 34.94882 -119.33708 22895 ft 446 kts 186°
2026-05-04 01:49 34.91783 -119.33567 22904 ft 446 kts 186°
2026-05-04 01:49 34.88691 -119.33424 22923 ft 445 kts 186°
2026-05-04 01:50 34.85599 -119.33283 22927 ft 444 kts 186°
2026-05-04 01:50 34.82513 -119.33142 22922 ft 444 kts 186°
2026-05-04 01:50 34.79891 -119.33023 22923 ft 444 kts 186°
2026-05-04 01:50 34.76709 -119.32735 22916 ft 450 kts 178°
2026-05-04 01:51 34.73731 -119.31591 22929 ft 454 kts 164°
2026-05-04 01:51 34.71052 -119.29577 22946 ft 462 kts 153°
2026-05-04 01:51 34.68473 -119.27234 22492 ft 462 kts 152°
2026-05-04 01:51 34.65917 -119.24920 21976 ft 454 kts 152°
2026-05-04 01:52 34.63382 -119.22688 21498 ft 447 kts 152°
2026-05-04 01:52 34.60873 -119.20526 20965 ft 438 kts 152°
2026-05-04 01:52 34.58410 -119.18414 20446 ft 430 kts 152°
2026-05-04 01:52 34.55990 -119.16334 19931 ft 422 kts 151°
2026-05-04 01:53 34.53635 -119.14266 19498 ft 414 kts 150°
2026-05-04 01:53 34.51335 -119.12221 19001 ft 408 kts 149°
2026-05-04 01:53 34.49187 -119.10310 18556 ft 402 kts 149°
2026-05-04 01:53 34.46941 -119.08318 18015 ft 398 kts 149°
2026-05-04 01:54 34.44723 -119.06357 17487 ft 393 kts 149°
2026-05-04 01:54 34.42556 -119.04459 17039 ft 385 kts 149°
2026-05-04 01:54 34.40390 -119.02585 16536 ft 381 kts 149°
2026-05-04 01:54 34.38243 -119.00732 16066 ft 377 kts 149°
2026-05-04 01:55 34.36124 -118.98901 15588 ft 373 kts 149°
2026-05-04 01:55 34.34192 -118.97230 15159 ft 370 kts 148°
2026-05-04 01:55 34.32202 -118.95453 14718 ft 368 kts 147°
2026-05-04 01:55 34.30162 -118.93589 14267 ft 367 kts 146°
2026-05-04 01:56 34.28144 -118.91744 13796 ft 359 kts 146°
2026-05-04 01:56 34.26178 -118.89954 13294 ft 349 kts 146°
2026-05-04 01:56 34.24269 -118.88213 12809 ft 339 kts 146°
2026-05-04 01:56 34.22414 -118.86508 12405 ft 330 kts 146°
2026-05-04 01:57 34.20638 -118.84871 12290 ft 313 kts 146°
2026-05-04 01:57 34.18952 -118.83321 12156 ft 304 kts 146°
2026-05-04 01:57 34.17290 -118.81797 12013 ft 298 kts 146°
2026-05-04 01:57 34.15851 -118.80434 11823 ft 299 kts 143°
2026-05-04 01:58 34.14282 -118.78760 11517 ft 303 kts 141°
2026-05-04 01:58 34.12729 -118.77040 11216 ft 304 kts 141°
2026-05-04 01:58 34.11177 -118.75318 10911 ft 301 kts 141°
2026-05-04 01:58 34.09644 -118.73629 10607 ft 295 kts 141°
2026-05-04 01:59 34.08130 -118.71974 10302 ft 292 kts 141°
2026-05-04 01:59 34.06638 -118.70352 10054 ft 286 kts 141°
2026-05-04 01:59 34.05186 -118.68778 9756 ft 284 kts 141°
2026-05-04 01:59 34.03750 -118.67154 9434 ft 284 kts 133°